Вернуться в каталог

THORAD DELTA 1 DEB

АктивенSSO
NORAD 8398·DEBRIS·🇺🇸 United States

Запущен Nov 15, 1974 с Vandenberg Space Force Base

Loading…

Ближайшие Пролёты (ближайшие 24 часа)

TLE

СвежийSource: Space-Track

Эпоха: Sep 14, 2026, 11:03 UTC

1 08398U 74089CA  26257.46050686 -.00000051  00000-0 -45989-4 0  9990
2 08398 102.6072 249.1943 0077028 177.8028 349.7405 12.26597242 76181

Отслеживайте THORAD DELTA 1 DEB в реальном времени с AllMySat

Download on the App Store